Tracking 35334 objects as of 13-Sep-2026
HD Live streaming from Space Station
objects crossing your sky now

COSMOS 2421 DEB


COSMOS 2421 DEB is no longer on orbit


NORAD ID: 33291
Int'l Code: 2006-026TF
Launch date: June 25, 2006
Source: Commonwealth of Independent States (former USSR) (CIS)
Launch site: TYURATAM MISSILE AND SPACE COMPLEX (TTMTR)
Decay date: 2008-09-26

Note: This is SATELLITE DEBRIS
Your satellite tracking list
Your tracking list is empty




NASA's NSSDC Master Catalog

Two Line Element Set (TLE):
1 33291U 06026TF  08269.99070899  .03120758  12277-1  72247-2 0  9998
2 33291 064.9440 100.2336 0016675 251.7074 108.2854 15.99646010  9023
Source of the keplerian elements: AFSPC